Weather History for KBLM - October, 2011

Change the Weather History Date:

Monday, October 17, 2011

  Actual Average Record
Temperature  
Mean Temperature 62 °F -  
Max Temperature 68 °F 60 °F 78 °F (1996)
Min Temperature 57 °F 45 °F 37 °F (2012)
Degree Days  
Heating Degree Days 2    
Growing Degree Days 12 (Base 50)    
Moisture  
Dew Point 41 °F    
Average Humidity 50    
Maximum Humidity 72    
Minimum Humidity 26    
Precipitation  
Precipitation 0.00 in - - ()
Sea Level Pressure  
Sea Level Pressure 29.76 in    
Wind  
Wind Speed 10 mph (WSW)    
Max Wind Speed 16 mph    
Max Gust Speed 26 mph    
Visibility 10 miles    
Events      
Averages and records for this station are not official NWS values.
T = Trace of Precipitation, MM = Missing Value Source: NWS Daily Summary

Daily Weather History Graph

Daily Weather History Graph

Search for Another Location

Airport or City:

Trip Planner

Search our weather history database for the weather conditions in past years. The results will help you decide how hot, cold, wet, or windy it might be!

Date:

Astronomy

Oct. 17, 2011 Rise Set
Actual Time 7:08 AM EDT 6:14 PM EDT
Civil Twilight 6:41 AM EDT 6:41 PM EDT
Nautical Twilight 6:09 AM EDT 7:13 PM EDT
Astronomical Twilight 5:38 AM EDT 7:44 PM EDT
Moon 9:52 PM EDT (10/17) 12:13 PM EDT (10/17)
Length of Visible Light 12h 00m
Length of Day
11h 05m
Waning Gibbous, 74% of the Moon is Illuminated
Oct 17
Waning Gibbous
Oct 19
Last Quarter
Oct 26
New
Nov 2
First Quarter
Nov 10
Full

Hourly Weather History & Observations

Time (EDT) Temp. Dew Point Humidity Pressure Visibility Wind Dir Wind Speed Gust Speed Precip Events Conditions
12:15 AM 62.6 °F 44.6 °F 52% 29.68 in 10.0 mi SW 12.7 mph 18.4 mph N/A   Partly Cloudy
12:35 AM 62.6 °F 46.4 °F 55% 29.68 in 10.0 mi SSW 10.4 mph - N/A   Clear
12:55 AM 62.6 °F 46.4 °F 55% 29.66 in 10.0 mi SSW 13.8 mph 20.7 mph N/A   Clear
1:15 AM 62.6 °F 46.4 °F 55% 29.66 in 10.0 mi SW 16.1 mph 21.9 mph N/A   Clear
1:35 AM 62.6 °F 46.4 °F 55% 29.66 in 10.0 mi SW 12.7 mph 21.9 mph N/A   Clear
1:55 AM 62.6 °F 48.2 °F 59% 29.66 in 10.0 mi SW 11.5 mph 26.5 mph N/A   Clear
2:15 AM 62.6 °F 48.2 °F 59% 29.65 in 10.0 mi SW 10.4 mph 16.1 mph N/A   Clear
2:35 AM 62.6 °F 48.2 °F 59% 29.69 in 10.0 mi West 12.7 mph 17.3 mph N/A   Clear
2:55 AM 62.6 °F 48.2 °F 59% 29.69 in 10.0 mi West 10.4 mph 17.3 mph N/A   Clear
3:15 AM 60.8 °F 48.2 °F 63% 29.69 in 10.0 mi WSW 9.2 mph - N/A   Clear
3:35 AM 60.8 °F 48.2 °F 63% 29.68 in 10.0 mi WSW 5.8 mph - N/A   Clear
4:15 AM 57.2 °F 48.2 °F 72% 29.70 in 10.0 mi West 5.8 mph - N/A   Clear
4:35 AM 57.2 °F 48.2 °F 72% 29.70 in 10.0 mi West 4.6 mph - N/A   Clear
4:55 AM 57.2 °F 48.2 °F 72% 29.71 in 10.0 mi West 5.8 mph - N/A   Partly Cloudy
5:15 AM 57.2 °F 48.2 °F 72% 29.71 in 10.0 mi West 3.5 mph - N/A   Scattered Clouds
5:35 AM 57.2 °F 48.2 °F 72% 29.72 in 10.0 mi SW 4.6 mph - N/A   Scattered Clouds
5:55 AM 57.2 °F 48.2 °F 72% 29.73 in 10.0 mi West 5.8 mph - N/A   Partly Cloudy
6:15 AM 57.2 °F 48.2 °F 72% 29.74 in 10.0 mi West 5.8 mph - N/A   Clear
6:35 AM 57.2 °F 48.2 °F 72% 29.74 in 10.0 mi WSW 8.1 mph - N/A   Mostly Cloudy
6:55 AM 57.2 °F 48.2 °F 72% 29.75 in 10.0 mi West 6.9 mph - N/A   Overcast
7:15 AM 57.2 °F 48.2 °F 72% 29.76 in 10.0 mi WSW 6.9 mph - N/A   Overcast
7:35 AM 57.2 °F 48.2 °F 72% 29.77 in 10.0 mi WNW 9.2 mph - N/A   Overcast
7:55 AM 57.2 °F 46.4 °F 67% 29.79 in 10.0 mi West 9.2 mph - N/A   Overcast
8:15 AM 57.2 °F 46.4 °F 67% 29.80 in 10.0 mi WNW 6.9 mph - N/A   Overcast
8:35 AM 57.2 °F 46.4 °F 67% 29.81 in 10.0 mi WNW 10.4 mph - N/A   Overcast
8:55 AM 57.2 °F 46.4 °F 67% 29.82 in 10.0 mi WNW 9.2 mph - N/A   Overcast
9:15 AM 57.2 °F 46.4 °F 67% 29.82 in 10.0 mi West 6.9 mph - N/A   Overcast
9:35 AM 57.2 °F 46.4 °F 67% 29.83 in 10.0 mi West 5.8 mph - N/A   Mostly Cloudy
9:55 AM 57.2 °F 46.4 °F 67% 29.83 in 10.0 mi West 6.9 mph - N/A   Scattered Clouds
10:15 AM 60.8 °F 46.4 °F 59% 29.83 in 10.0 mi West 9.2 mph - N/A   Partly Cloudy
10:35 AM 60.8 °F 42.8 °F 52% 29.83 in 10.0 mi West 10.4 mph - N/A   Clear
11:15 AM 62.6 °F 35.6 °F 37% 29.82 in 10.0 mi West 13.8 mph - N/A   Clear
11:35 AM 62.6 °F 37.4 °F 39% 29.82 in 10.0 mi West 15.0 mph - N/A   Clear
11:55 AM 64.4 °F 37.4 °F 37% 29.81 in 10.0 mi West 10.4 mph 20.7 mph N/A   Clear
12:15 PM 64.4 °F 39.2 °F 40% 29.81 in 10.0 mi West 10.4 mph 17.3 mph N/A   Clear
12:35 PM 64.4 °F 39.2 °F 40% 29.80 in 10.0 mi WSW 12.7 mph 20.7 mph N/A   Clear
12:55 PM 64.4 °F 35.6 °F 34% 29.79 in 10.0 mi West 12.7 mph 19.6 mph N/A   Clear
1:15 PM 66.2 °F 33.8 °F 30% 29.79 in 10.0 mi West 15.0 mph 18.4 mph N/A   Clear
1:35 PM 66.2 °F 33.8 °F 30% 29.78 in 10.0 mi West 10.4 mph - N/A   Clear
1:55 PM 66.2 °F 33.8 °F 30% 29.77 in 10.0 mi West 11.5 mph - N/A   Clear
2:15 PM 66.2 °F 33.8 °F 30% 29.77 in 10.0 mi West 15.0 mph - N/A   Clear
2:35 PM 68.0 °F 32.0 °F 26% 29.76 in 10.0 mi West 12.7 mph 21.9 mph N/A   Clear
2:55 PM 68.0 °F 33.8 °F 28% 29.76 in 10.0 mi West 9.2 mph - N/A   Clear
3:15 PM 68.0 °F 32.0 °F 26% 29.76 in 10.0 mi West 13.8 mph 24.2 mph N/A   Clear
3:35 PM 68.0 °F 32.0 °F 26% 29.74 in 10.0 mi WSW 11.5 mph 19.6 mph N/A   Clear
3:55 PM 68.0 °F 33.8 °F 28% 29.75 in 10.0 mi WSW 10.4 mph - N/A   Clear
4:15 PM 68.0 °F 33.8 °F 28% 29.75 in 10.0 mi WSW 10.4 mph - N/A   Clear
4:35 PM 66.2 °F 32.0 °F 28% 29.76 in 10.0 mi WSW 11.5 mph 16.1 mph N/A   Clear
5:15 PM 66.2 °F 33.8 °F 30% 29.76 in 10.0 mi WSW 8.1 mph - N/A   Clear
5:35 PM 66.2 °F 32.0 °F 28% 29.76 in 10.0 mi WSW 8.1 mph - N/A   Clear
5:55 PM 64.4 °F 33.8 °F 32% 29.77 in 10.0 mi WSW 6.9 mph - N/A   Clear
6:15 PM 62.6 °F 32.0 °F 32% 29.78 in 10.0 mi WSW 4.6 mph - N/A   Clear
6:35 PM 62.6 °F 32.0 °F 32% 29.78 in 10.0 mi SSW 4.6 mph - N/A   Clear
6:55 PM 60.8 °F 33.8 °F 36% 29.79 in 10.0 mi SW 4.6 mph - N/A   Clear
7:15 PM 59.0 °F 35.6 °F 42% 29.79 in 10.0 mi SW 5.8 mph - N/A   Clear
7:35 PM 59.0 °F 33.8 °F 39% 29.80 in 10.0 mi WSW 8.1 mph - N/A   Clear
8:15 PM 57.2 °F 33.8 °F 41% 29.80 in 10.0 mi SW 5.8 mph - N/A   Clear
8:35 PM 57.2 °F 33.8 °F 41% 29.80 in 10.0 mi SSW 5.8 mph - N/A   Clear
8:55 PM 57.2 °F 35.6 °F 44% 29.81 in 10.0 mi SW 8.1 mph - N/A   Clear
9:15 PM 57.2 °F 39.2 °F 51% 29.81 in 10.0 mi SW 8.1 mph - N/A   Clear
9:35 PM 57.2 °F 42.8 °F 59% 29.81 in 10.0 mi SW 10.4 mph - N/A   Clear
9:55 PM 57.2 °F 44.6 °F 63% 29.81 in 10.0 mi SW 10.4 mph - N/A   Clear
10:15 PM 55.4 °F 46.4 °F 72% 29.82 in 10.0 mi SW 10.4 mph - N/A   Clear
10:35 PM 55.4 °F 46.4 °F 72% 29.82 in 10.0 mi SW 9.2 mph 16.1 mph N/A   Clear
11:15 PM 55.4 °F 48.2 °F 77% 29.82 in 10.0 mi SW 9.2 mph - N/A   Clear
11:35 PM 55.4 °F 48.2 °F 77% 29.82 in 10.0 mi SW 8.1 mph - N/A   Clear
11:55 PM 55.4 °F 48.2 °F 77% 29.82 in 10.0 mi SW 5.8 mph - N/A   Clear